Location: Home
(42.5358°N, 72.7383°W)
Time: 10:17:49
(UTC-05:00)

S-56A Canister/Altair - Pass Details

Date: 06 December 2021
Orbit: 634 x 2499 km, 38.9° (Epoch: 22 January)

Event Time Altitude Azimuth Distance (km) Brightness Sun altitude
Rises 20:16:01 0° 200° (SSW) 6,025 12.2 -43.1°
Reaches altitude 10° 20:21:25 10° 188° (S) 4,821 11.5 -44.0°
Enters shadow 20:23:41 14° 180° (S) 4,357 11.2 -44.4°
Maximum altitude 20:30:26 22° 144° (SE) 3,422 - -45.7°
Drops below altitude 10° 20:37:40 10° 99° (E) 3,785 - -47.0°
Sets 20:41:12 0° 84° (E) 4,471 - -47.6°
